Location: eljas
(40.1958°N, 6.8661°W)
Time: 14:13:35
(UTC+02:00)

ISS - All Passes

Search period start: 29 May 2015 00:00
Search period end: 08 June 2015 00:00
Orbit: 399 x 404 km, 51.6° (Epoch: 29 May)

Date Brightness Start Highest point End Pass type
(mag) Time Alt. Az. Time Alt. Az. Time Alt. Az.
29 May - 00:23:53 10° SW 00:27:01 51° SE 00:30:12 10° ENE night (unlit)
29 May - 02:00:57 10° W 02:03:37 23° NNW 02:06:18 10° NNE visible
29 May - 03:39:47 10° NNW 03:40:57 11° N 03:42:06 10° NNE visible
29 May - 05:16:20 10° NNW 05:18:25 16° NNE 05:20:31 10° ENE visible
29 May - 06:52:05 10° NW 06:55:20 64° NE 06:58:35 10° ESE daylight
29 May - 08:29:46 10° W 08:31:26 13° SW 08:32:59 10° SSW daylight
29 May - 23:31:12 10° S 23:33:54 25° SE 23:36:39 10° ENE night (unlit)
30 May - 01:07:11 10° W 01:10:13 36° NNW 01:13:16 10° NE visible
30 May - 02:45:48 10° NW 02:47:22 13° N 02:48:56 10° NNE visible
30 May - 04:23:18 10° NNW 04:24:52 13° N 04:26:27 10° NE visible
30 May - 05:58:58 10° NW 06:02:01 35° NNE 06:05:04 10° E visible
30 May - 07:35:34 10° WNW 07:38:21 25° SW 07:41:06 10° SSE daylight
30 May - 22:39:21 10° SSE 22:40:49 13° SE 22:42:24 10° E visible
31 May - 00:13:40 10° WSW 00:16:53 65° NW 00:20:08 10° NE visible
31 May - 01:51:43 10° WNW 01:53:49 16° NNW 01:55:53 10° NNE visible
31 May - 03:30:08 10° NNW 03:31:16 11° N 03:32:26 10° NNE visible
31 May - 05:05:56 10° NNW 05:08:36 23° NNE 05:11:18 10° E visible
31 May - 06:42:00 10° WNW 06:45:12 52° SW 06:48:22 10° SE daylight
31 May - 23:20:27 10° SW 23:23:38 62° SE 23:26:51 10° ENE visible
01 Jun - 00:57:43 10° WNW 01:00:18 21° NNW 01:02:52 10° NNE visible
01 Jun - 02:36:34 10° NNW 02:37:39 11° N 02:38:45 10° NNE visible
01 Jun - 04:12:54 10° NNW 04:15:06 17° NNE 04:17:19 10° ENE visible
01 Jun - 05:48:42 10° NW 05:51:58 76° NE 05:55:13 10° ESE visible
01 Jun - 07:26:58 10° WSW 07:28:00 11° SW 07:28:53 10° SW daylight
01 Jun - 22:27:36 10° SSW 22:30:27 29° SE 22:33:21 10° ENE visible
02 Jun - 00:03:53 10° W 00:06:50 32° NNW 00:09:49 10° NE visible
02 Jun - 01:42:35 10° NW 01:44:02 12° N 01:45:29 10° NNE visible
02 Jun - 03:19:51 10° NNW 03:21:32 13° NNE 03:23:14 10° NE visible
02 Jun - 04:55:31 10° NW 04:58:38 40° NNE 05:01:44 10° ESE visible
02 Jun - 06:32:17 10° W 06:34:53 22° SW 06:37:27 10° S daylight
02 Jun - 21:35:26 10° SSE 21:37:20 15° SE 21:39:19 10° E daylight
02 Jun - 23:10:16 10° WSW 23:13:28 55° NW 23:16:40 10° NE visible
03 Jun - 00:48:28 10° NW 00:50:26 15° NNW 00:52:23 10° NNE visible
03 Jun - 02:26:42 10° NNW 02:27:55 12° N 02:29:08 10° NNE visible
03 Jun - 04:02:25 10° NNW 04:05:12 25° NNE 04:07:59 10° E visible
03 Jun - 05:38:36 10° WNW 05:41:44 43° SW 05:44:50 10° SSE visible
03 Jun - 22:16:56 10° SW 22:20:10 74° SE 22:23:24 10° NE visible
03 Jun - 23:54:25 10° WNW 23:56:53 19° NNW 23:59:20 10° NNE visible
04 Jun - 01:33:13 10° NNW 01:34:16 11° N 01:35:19 10° NNE visible
04 Jun - 03:09:22 10° NNW 03:11:41 18° NNE 03:14:01 10° ENE visible
04 Jun - 04:45:13 10° NW 04:48:29 89° NNE 04:51:44 10° SE visible
04 Jun - 21:23:58 10° SSW 21:26:56 35° SE 21:29:56 10° ENE daylight
04 Jun - 23:00:30 10° W 23:03:23 28° NNW 23:06:15 10° NE visible
05 Jun - 00:39:17 10° NNW 00:40:37 12° N 00:41:56 10° NNE visible
05 Jun - 02:16:18 10° NNW 02:18:06 14° NNE 02:19:55 10° NE visible
05 Jun - 03:51:59 10° NW 03:55:09 46° NNE 03:58:18 10° ESE visible
05 Jun - 05:28:58 10° W 05:31:21 18° SW 05:33:40 10° S night (unlit)
05 Jun - 20:31:33 10° S 20:33:46 18° SE 20:36:03 10° E daylight
05 Jun - 22:06:48 10° WSW 22:09:57 48° NNW 22:13:06 10° NE daylight
05 Jun - 23:45:08 10° NW 23:46:58 14° NNW 23:48:48 10° NNE visible
06 Jun - 01:23:10 10° NNW 01:24:27 12° N 01:25:46 10° NNE visible
06 Jun - 02:58:50 10° NW 03:01:42 28° NNE 03:04:34 10° E visible
06 Jun - 04:35:08 10° WNW 04:38:10 36° SW 04:41:11 10° SSE night (unlit)
06 Jun - 21:13:21 10° SW 21:16:35 87° SE 21:19:51 10° NE daylight
06 Jun - 22:51:01 10° WNW 22:53:22 18° NNW 22:55:42 10° NNE visible
07 Jun - 00:29:45 10° NNW 00:30:47 11° N 00:31:49 10° NNE visible
07 Jun - 02:05:44 10° NNW 02:08:10 19° NNE 02:10:37 10° ENE visible
07 Jun - 03:41:39 10° NW 03:44:55 77° SW 03:48:09 10° SE visible
07 Jun - 20:20:15 10° SSW 20:23:18 41° SE 20:26:24 10° ENE daylight
07 Jun - 21:57:02 10° W 21:59:49 26° NNW 22:02:36 10° NNE daylight
07 Jun - 23:35:51 10° NNW 23:37:05 12° N 23:38:19 10° NNE visible
